Weather History for Knox, IN

Change the Weather History Date:

Sunday, February 17, 2013

  Actual Average (KVPZ) Record (KVPZ)
Temperature  
Mean Temperature 20 °F 28 °F  
Max Temperature 29 °F 36 °F 52 °F (2008)
Min Temperature 11 °F 20 °F 10 °F (2013)
Degree Days  
Heating Degree Days 45 37  
Month to date heating degree days 664  
Since 1 July heating degree days 4349  
Cooling Degree Days 0 0  
Month to date cooling degree days 0  
Year to date cooling degree days 0  
Moisture  
Dew Point 8 °F    
Average Humidity 58    
Maximum Humidity 77    
Minimum Humidity 37    
Precipitation  
Precipitation 0.00 in 0.05 in 0.36 in (2008)
Month to date precipitation 0.84  
Year to date precipitation 2.59  
Sea Level Pressure  
Sea Level Pressure 30.15 in    
Wind  
Wind Speed 8 mph (SW)    
Max Wind Speed 13 mph    
Max Gust Speed 16 mph    
Visibility 10 miles    
Events      
T = Trace of Precipitation, MM = Missing Value Source: NWS Daily Summary

Daily Weather History Graph

Daily Weather History Graph

Search for Another Location

Airport:

Trip Planner

Search our weather history database for the weather conditions in past years. The results will help you decide how hot, cold, wet, or windy it might be!

Date:

Astronomy

Feb. 17, 2013 Rise Set
Actual Time 6:38 AM CST 5:23 PM CST
Civil Twilight 6:10 AM CST 5:51 PM CST
Nautical Twilight 5:38 AM CST 6:23 PM CST
Astronomical Twilight 5:06 AM CST 6:55 PM CST
Moon 10:25 AM CST (2/17) 12:23 AM CST (2/17)
Length of Visible Light 11h 41m
Length of Day
10h 44m
Waxing Crescent, 49% of the Moon is Illuminated
Feb 17
Waxing Crescent
Feb 17
First Quarter
Feb 25
Full
Mar 4
Last Quarter
Mar 11
New

Hourly Weather History & Observations

Time (CST) Temp. Windchill Dew Point Humidity Pressure Visibility Wind Dir Wind Speed Gust Speed Precip Events Conditions
12:15 AM 14.0 °F 1.2 °F 5.0 °F 67% 30.14 in 10.0 mi West 10.4 mph - N/A   Clear
12:35 AM 14.0 °F 2.0 °F 4.5 °F 66% 30.14 in 10.0 mi West 9.2 mph - N/A   Clear
12:55 AM 13.8 °F 1.8 °F 4.5 °F 66% 30.13 in 10.0 mi West 9.2 mph - N/A   Clear
1:15 AM 13.5 °F 1.3 °F 4.6 °F 68% 30.13 in 10.0 mi West 9.2 mph - N/A   Clear
1:35 AM 13.1 °F 2.8 °F 4.8 °F 70% 30.13 in 10.0 mi West 6.9 mph - N/A   Clear
1:55 AM 12.9 °F 3.8 °F 5.0 °F 71% 30.13 in 10.0 mi West 5.8 mph - N/A   Clear
2:15 AM 12.9 °F 2.6 °F 5.2 °F 71% 30.14 in 10.0 mi West 6.9 mph - N/A   Clear
2:35 AM 13.1 °F 2.8 °F 5.0 °F 70% 30.14 in 10.0 mi West 6.9 mph - N/A   Clear
2:55 AM 13.1 °F 2.8 °F 4.8 °F 70% 30.14 in 10.0 mi West 6.9 mph - N/A   Clear
3:15 AM 13.1 °F 2.8 °F 4.6 °F 69% 30.14 in 10.0 mi West 6.9 mph - N/A   Clear
3:35 AM 12.9 °F 2.6 °F 4.6 °F 70% 30.14 in 10.0 mi West 6.9 mph - N/A   Clear
3:55 AM 12.7 °F 2.4 °F 4.5 °F 70% 30.14 in 10.0 mi West 6.9 mph - N/A   Clear
4:15 AM 12.4 °F 4.6 °F 4.8 °F 72% 30.14 in 10.0 mi West 4.6 mph - N/A   Clear
4:35 AM 11.8 °F 2.5 °F 5.0 °F 74% 30.15 in 10.0 mi WSW 5.8 mph - N/A   Clear
4:55 AM 11.5 °F 2.1 °F 5.2 °F 76% 30.15 in 10.0 mi WSW 5.8 mph - N/A   Clear
5:15 AM 11.3 °F -0.4 °F 5.4 °F 77% 30.15 in 10.0 mi WSW 8.1 mph - N/A   Clear
5:35 AM 12.0 °F 0.5 °F 5.4 °F 75% 30.15 in 10.0 mi West 8.1 mph - N/A   Clear
6:15 AM 12.2 °F 1.7 °F 5.2 °F 73% 30.17 in 10.0 mi West 6.9 mph - N/A   Clear
6:35 AM 11.8 °F 0.3 °F 5.2 °F 75% 30.18 in 10.0 mi WSW 8.1 mph - N/A   Clear
7:15 AM 12.6 °F -0.6 °F 6.1 °F 75% 30.18 in 10.0 mi West 10.4 mph - N/A   Scattered Clouds
7:35 AM 13.5 °F 2.2 °F 6.4 °F 74% 30.19 in 10.0 mi West 8.1 mph - N/A   Scattered Clouds
7:55 AM 14.5 °F 4.6 °F 6.8 °F 71% 30.19 in 10.0 mi West 6.9 mph - N/A   Clear
8:15 AM 16.0 °F 6.3 °F 7.5 °F 69% 30.20 in 10.0 mi West 6.9 mph - N/A   Clear
8:35 AM 17.6 °F 7.3 °F 8.6 °F 68% 30.19 in 10.0 mi West 8.1 mph - N/A   Clear
8:55 AM 19.0 °F 11.1 °F 9.5 °F 66% 30.20 in 10.0 mi West 5.8 mph - N/A   Clear
9:15 AM 20.5 °F 11.7 °F 10.2 °F 65% 30.20 in 10.0 mi West 6.9 mph - N/A   Clear
9:35 AM 21.6 °F 13.0 °F 10.2 °F 62% 30.20 in 10.0 mi WNW 6.9 mph - N/A   Clear
9:55 AM 22.3 °F 16.1 °F 9.0 °F 57% 30.20 in 10.0 mi West 4.6 mph - N/A   Clear
10:15 AM 22.8 °F 15.5 °F 7.2 °F 51% 30.21 in 10.0 mi SW 5.8 mph - N/A   Clear
10:35 AM 23.4 °F 14.3 °F 6.8 °F 49% 30.20 in 10.0 mi SW 8.1 mph - N/A   Clear
10:55 AM 24.3 °F 18.4 °F 6.6 °F 47% 30.20 in 10.0 mi SSE 4.6 mph - N/A   Clear
11:15 AM 25.2 °F 17.3 °F 5.5 °F 43% 30.20 in 10.0 mi SW 6.9 mph - N/A   Clear
11:35 AM 25.9 °F 18.2 °F 5.4 °F 42% 30.20 in 10.0 mi SSW 6.9 mph - N/A   Clear
11:55 AM 26.4 °F 19.8 °F 4.8 °F 40% 30.18 in 10.0 mi SSE 5.8 mph - N/A   Clear
12:15 PM 27.0 °F 18.7 °F 5.5 °F 40% 30.18 in 10.0 mi SSW 8.1 mph - N/A   Clear
12:35 PM 27.5 °F 19.3 °F 6.6 °F 41% 30.18 in 10.0 mi SSW 8.1 mph - N/A   Clear
12:55 PM 27.7 °F 17.1 °F 6.4 °F 41% 30.18 in 10.0 mi SSW 12.7 mph - N/A   Clear
1:15 PM 28.2 °F 18.9 °F 5.7 °F 39% 30.18 in 10.0 mi WSW 10.4 mph - N/A   Clear
1:35 PM 28.8 °F 21.7 °F 5.9 °F 38% 30.17 in 10.0 mi SW 6.9 mph 16.1 mph N/A   Clear
1:55 PM 28.8 °F 20.9 °F 5.5 °F 37% 30.17 in 10.0 mi SW 8.1 mph - N/A   Clear
2:15 PM 28.9 °F 20.4 °F 5.7 °F 37% 30.16 in 10.0 mi SSW 9.2 mph - N/A   Clear
2:35 PM 28.9 °F 21.1 °F 6.6 °F 39% 30.15 in 10.0 mi SSW 8.1 mph - N/A   Clear
2:55 PM 28.9 °F 21.9 °F 6.3 °F 38% 30.15 in 10.0 mi SSW 6.9 mph - N/A   Clear
3:15 PM 29.7 °F 20.1 °F 7.2 °F 39% 30.15 in 10.0 mi SSW 11.5 mph - N/A   Clear
3:35 PM 29.3 °F 20.8 °F 5.7 °F 37% 30.15 in 10.0 mi WSW 9.2 mph - N/A   Clear
3:55 PM 29.3 °F 21.5 °F 7.0 °F 39% 30.15 in 10.0 mi SW 8.1 mph - N/A   Clear
4:15 PM 28.9 °F 21.1 °F 7.9 °F 41% 30.14 in 10.0 mi South 8.1 mph - N/A   Clear
4:35 PM 28.8 °F 20.9 °F 9.1 °F 44% 30.13 in 10.0 mi South 8.1 mph - N/A   Clear
4:55 PM 28.4 °F 19.7 °F 9.3 °F 45% 30.14 in 10.0 mi South 9.2 mph - N/A   Clear
5:15 PM 27.9 °F 20.6 °F 9.5 °F 46% 30.13 in 10.0 mi South 6.9 mph - N/A   Clear
5:35 PM 27.1 °F 19.7 °F 10.0 °F 49% 30.12 in 10.0 mi SSE 6.9 mph - N/A   Clear
5:55 PM 26.4 °F 19.8 °F 11.3 °F 53% 30.12 in 10.0 mi SSE 5.8 mph - N/A   Clear
6:15 PM 25.9 °F 19.2 °F 11.8 °F 55% 30.13 in 10.0 mi South 5.8 mph - N/A   Clear
6:55 PM 24.8 °F 17.9 °F 13.1 °F 61% 30.12 in 10.0 mi SE 5.8 mph - N/A   Clear
7:15 PM 23.9 °F 16.8 °F 13.3 °F 64% 30.12 in 10.0 mi SE 5.8 mph - N/A   Clear
7:35 PM 23.4 °F 16.2 °F 14.4 °F 68% 30.12 in 10.0 mi SE 5.8 mph - N/A   Clear
7:55 PM 23.5 °F 16.4 °F 14.0 °F 67% 30.12 in 10.0 mi SE 5.8 mph - N/A   Clear
8:15 PM 23.5 °F 16.4 °F 13.8 °F 66% 30.12 in 10.0 mi SE 5.8 mph - N/A   Clear
8:35 PM 23.2 °F 16.0 °F 14.0 °F 68% 30.12 in 10.0 mi SE 5.8 mph - N/A   Clear
8:55 PM 23.4 °F 14.3 °F 14.0 °F 67% 30.12 in 10.0 mi SE 8.1 mph - N/A   Clear
9:15 PM 23.7 °F 14.0 °F 13.8 °F 66% 30.11 in 10.0 mi SE 9.2 mph - N/A   Clear
9:35 PM 23.9 °F 15.0 °F 14.0 °F 66% 30.10 in 10.0 mi SSE 8.1 mph - N/A   Clear
9:55 PM 24.8 °F 14.6 °F 14.2 °F 64% 30.09 in 10.0 mi SSE 10.4 mph - N/A   Clear
10:15 PM 25.7 °F 15.7 °F 14.0 °F 61% 30.09 in 10.0 mi SSE 10.4 mph - N/A   Clear
10:35 PM 26.1 °F 16.8 °F 13.3 °F 59% 30.10 in 10.0 mi SSE 9.2 mph - N/A   Clear
11:15 PM 25.7 °F 16.4 °F 12.6 °F 58% 30.09 in 10.0 mi SSE 9.2 mph - N/A   Clear
11:35 PM 25.7 °F 16.4 °F 12.4 °F 57% 30.09 in 10.0 mi SSE 9.2 mph - N/A   Clear